Location: Overspoor
(51.4747°N, 5.6641°E)
Time: 14:55:52
(UTC+02:00)

RS-15 - Pass Details

Date: 02 July 2022
Orbit: 1881 x 2163 km, 64.8° (Epoch: 13 August)

Event Time Altitude Azimuth Distance (km) Brightness Sun altitude
Rises 01:05:51 0° 319° (NW) 5,698 11.5 -15.1°
Reaches altitude 10° 01:09:19 10° 317° (NW) 4,694 10.9 -15.1°
Maximum altitude 01:21:34 71° 238° (WSW) 2,234 8.2 -15.3°
Enters shadow 01:31:42 16° 158° (SSE) 4,059 9.1 -15.4°
